KLC334 YTGT-YBAS

Flight info

Callsign KLC334
Flight time 0h 48m
Altitude 37000
Route SOLLI DCT GEKKO DCT IGDEB
Aircraft E190/M-SDE3GILORVW/S

Departure

Time 2026-04-24 00:24
Airport The Granites Airport (YTGT)

Arrival

Time 2026-04-24 01:13
Airport Alice Springs Airport (YBAS)
Time Latitude Longitude Altitude Speed Heading
2026-04-24 00:06 -20.54865 130.34674 1289 ft 0 kts 268°
2026-04-24 00:18 -20.54854 130.34673 1292 ft 2 kts 32°
2026-04-24 00:18 -20.54852 130.34676 1293 ft 0 kts 39°
2026-04-24 00:20 -20.54847 130.34680 1288 ft 2 kts 39°
2026-04-24 00:20 -20.54811 130.34699 1289 ft 10 kts 22°
2026-04-24 00:20 -20.54747 130.34696 1288 ft 10 kts 310°
2026-04-24 00:20 -20.54708 130.34631 1288 ft 10 kts 301°
2026-04-24 00:21 -20.54672 130.34562 1287 ft 11 kts 297°
2026-04-24 00:21 -20.54636 130.34487 1289 ft 12 kts 297°
2026-04-24 00:21 -20.54592 130.34399 1282 ft 15 kts 297°
2026-04-24 00:21 -20.54543 130.34295 1280 ft 17 kts 296°
2026-04-24 00:22 -20.54496 130.34184 1278 ft 16 kts 293°
2026-04-24 00:22 -20.54458 130.34070 1276 ft 15 kts 297°
2026-04-24 00:22 -20.54417 130.34045 1275 ft 1 kts 35°
2026-04-24 00:22 -20.54412 130.34059 1274 ft 3 kts 84°
2026-04-24 00:23 -20.54420 130.34092 1275 ft 7 kts 116°
2026-04-24 00:23 -20.54433 130.34115 1276 ft 0 kts 118°
2026-04-24 00:24 -20.54473 130.34202 1278 ft 41 kts 116°
2026-04-24 00:24 -20.54699 130.34675 1288 ft 100 kts 116°
2026-04-24 00:24 -20.55094 130.35508 1315 ft 148 kts 114°
2026-04-24 00:24 -20.55607 130.36567 1767 ft 171 kts 115°
2026-04-24 00:25 -20.55887 130.37862 2311 ft 194 kts 89°
2026-04-24 00:25 -20.55751 130.39430 2872 ft 229 kts 83°
2026-04-24 00:25 -20.55614 130.41151 4012 ft 236 kts 85°
2026-04-24 00:25 -20.55508 130.42949 4962 ft 253 kts 84°
2026-04-24 00:26 -20.55391 130.44845 6072 ft 260 kts 86°
2026-04-24 00:26 -20.55279 130.46788 7141 ft 265 kts 86°
2026-04-24 00:26 -20.55167 130.48764 8209 ft 267 kts 87°
2026-04-24 00:26 -20.55054 130.50764 9241 ft 273 kts 87°
2026-04-24 00:27 -20.54940 130.52767 10309 ft 276 kts 88°
2026-04-24 00:27 -20.54814 130.54933 10925 ft 299 kts 88°
2026-04-24 00:27 -20.54673 130.57210 11611 ft 316 kts 87°
2026-04-24 00:27 -20.54529 130.59559 12365 ft 330 kts 87°
2026-04-24 00:28 -20.54375 130.62038 13216 ft 342 kts 86°
2026-04-24 00:28 -20.54217 130.64596 14013 ft 353 kts 86°
2026-04-24 00:28 -20.54053 130.67209 14942 ft 356 kts 86°
2026-04-24 00:28 -20.53886 130.69862 15854 ft 361 kts 86°
2026-04-24 00:29 -20.53714 130.72567 16705 ft 369 kts 86°
2026-04-24 00:29 -20.53536 130.75319 17641 ft 374 kts 87°
2026-04-24 00:29 -20.53354 130.78120 18389 ft 382 kts 86°
2026-04-24 00:29 -20.53165 130.80970 19034 ft 389 kts 86°
2026-04-24 00:30 -20.52971 130.83874 19644 ft 395 kts 87°
2026-04-24 00:30 -20.52772 130.86824 20265 ft 402 kts 87°
2026-04-24 00:30 -20.52570 130.89794 20729 ft 412 kts 87°
2026-04-24 00:30 -20.52360 130.92848 21319 ft 417 kts 86°
2026-04-24 00:31 -20.52147 130.95939 21944 ft 421 kts 87°
2026-04-24 00:31 -20.51927 130.99076 22593 ft 424 kts 87°
2026-04-24 00:31 -20.51704 131.02242 23147 ft 431 kts 86°
2026-04-24 00:31 -20.51476 131.05451 23708 ft 436 kts 86°
2026-04-24 00:32 -20.51244 131.08690 24186 ft 440 kts 86°
2026-04-24 00:32 -20.51007 131.11972 24608 ft 445 kts 86°
2026-04-24 00:32 -20.50767 131.15277 25006 ft 450 kts 86°
2026-04-24 00:32 -20.50522 131.18622 25392 ft 455 kts 86°
2026-04-24 00:33 -20.50277 131.21962 25776 ft 459 kts 87°
2026-04-24 00:33 -20.50381 131.25370 26123 ft 461 kts 102°
2026-04-24 00:33 -20.51423 131.28586 26505 ft 459 kts 121°
2026-04-24 00:33 -20.53264 131.31338 26903 ft 455 kts 138°
2026-04-24 00:34 -20.55670 131.33511 27321 ft 452 kts 147°
2026-04-24 00:34 -20.58207 131.35513 27710 ft 455 kts 148°
2026-04-24 00:34 -20.60766 131.37533 28095 ft 458 kts 148°
2026-04-24 00:34 -20.63338 131.39576 28476 ft 461 kts 148°
2026-04-24 00:35 -20.65921 131.41627 28842 ft 464 kts 148°
2026-04-24 00:35 -20.68521 131.43684 29181 ft 466 kts 148°
2026-04-24 00:35 -20.71123 131.45743 29647 ft 466 kts 148°
2026-04-24 00:35 -20.73725 131.47806 30111 ft 464 kts 149°
2026-04-24 00:36 -20.76318 131.49863 30493 ft 464 kts 149°
2026-04-24 00:36 -20.78927 131.51899 30798 ft 465 kts 150°
2026-04-24 00:36 -20.81528 131.53877 31113 ft 466 kts 150°
2026-04-24 00:36 -20.84103 131.55843 31435 ft 466 kts 150°
2026-04-24 00:38 -20.85869 131.57184 31559 ft 466 kts 149°
2026-04-24 00:38 -20.88504 131.59198 31909 ft 467 kts 149°
2026-04-24 00:38 -20.90285 131.60571 32144 ft 467 kts 150°
2026-04-24 00:38 -20.91355 131.61396 32286 ft 467 kts 150°
2026-04-24 00:39 -20.92231 131.62070 32405 ft 467 kts 150°
2026-04-24 00:39 -20.94874 131.64109 32746 ft 468 kts 150°
2026-04-24 00:39 -20.97520 131.66153 33092 ft 469 kts 150°
2026-04-24 00:39 -21.00168 131.68204 33436 ft 470 kts 150°
2026-04-24 00:40 -21.02817 131.70260 33787 ft 470 kts 150°
2026-04-24 00:40 -21.05466 131.72319 34121 ft 471 kts 150°
2026-04-24 00:40 -21.08115 131.74388 34425 ft 471 kts 150°
2026-04-24 00:40 -21.10757 131.76455 34742 ft 470 kts 150°
2026-04-24 00:41 -21.13392 131.78521 35082 ft 468 kts 150°
2026-04-24 00:41 -21.16018 131.80583 35393 ft 468 kts 150°
2026-04-24 00:41 -21.18646 131.82652 35715 ft 467 kts 150°
2026-04-24 00:41 -21.21235 131.84680 36003 ft 465 kts 153°
2026-04-24 00:42 -21.23976 131.86465 36282 ft 459 kts 157°
2026-04-24 00:42 -21.26737 131.88185 36583 ft 459 kts 157°
2026-04-24 00:42 -21.29489 131.89920 36874 ft 459 kts 156°
2026-04-24 00:42 -21.32235 131.91665 37204 ft 456 kts 156°
2026-04-24 00:43 -21.37753 131.95188 37274 ft 466 kts 156°
2026-04-24 00:43 -21.43319 131.98761 37282 ft 470 kts 156°
2026-04-24 00:44 -21.48928 132.02372 37193 ft 470 kts 156°
2026-04-24 00:44 -21.54525 132.05982 37190 ft 469 kts 156°
2026-04-24 00:45 -21.60125 132.09596 37177 ft 470 kts 156°
2026-04-24 00:45 -21.65719 132.13211 37182 ft 469 kts 156°
2026-04-24 00:46 -21.71289 132.16813 37189 ft 469 kts 156°
2026-04-24 00:46 -21.76888 132.20438 37195 ft 469 kts 156°
2026-04-24 00:47 -21.82470 132.24055 37192 ft 467 kts 156°
2026-04-24 00:47 -21.88036 132.27665 37201 ft 467 kts 156°
2026-04-24 00:48 -21.93612 132.31284 37201 ft 467 kts 156°
2026-04-24 00:48 -21.99181 132.34902 37202 ft 467 kts 156°
2026-04-24 00:49 -22.04743 132.38520 37206 ft 466 kts 156°
2026-04-24 00:49 -22.10255 132.42108 37210 ft 465 kts 156°
2026-04-24 00:50 -22.15801 132.45721 37208 ft 465 kts 156°
2026-04-24 00:50 -22.21350 132.49339 37212 ft 466 kts 156°
2026-04-24 00:51 -22.26892 132.52957 37209 ft 465 kts 156°
2026-04-24 00:51 -22.32435 132.56578 37208 ft 466 kts 156°
2026-04-24 00:52 -22.37982 132.60205 37217 ft 465 kts 156°
2026-04-24 00:52 -22.43480 132.63806 37222 ft 465 kts 156°
2026-04-24 00:53 -22.49011 132.67429 37200 ft 465 kts 156°
2026-04-24 00:53 -22.51778 132.69242 36729 ft 463 kts 156°
2026-04-24 00:53 -22.54512 132.71041 36436 ft 458 kts 156°
2026-04-24 00:54 -22.57257 132.72836 35717 ft 462 kts 157°
2026-04-24 00:54 -22.60004 132.74639 35136 ft 461 kts 157°
2026-04-24 00:54 -22.62750 132.76441 34486 ft 461 kts 157°
2026-04-24 00:54 -22.65490 132.78239 33825 ft 461 kts 157°
2026-04-24 00:55 -22.68220 132.80033 33265 ft 457 kts 156°
2026-04-24 00:55 -22.70939 132.81821 32636 ft 457 kts 156°
2026-04-24 00:55 -22.73650 132.83606 32037 ft 457 kts 156°
2026-04-24 00:55 -22.76365 132.85394 31440 ft 456 kts 155°
2026-04-24 00:56 -22.79077 132.87182 30820 ft 457 kts 155°
2026-04-24 00:56 -22.81796 132.88975 30204 ft 458 kts 155°
2026-04-24 00:56 -22.84513 132.90768 29609 ft 457 kts 155°
2026-04-24 00:56 -22.87237 132.92566 28985 ft 459 kts 154°
2026-04-24 00:57 -22.89957 132.94362 28398 ft 456 kts 154°
2026-04-24 00:57 -22.92660 132.96151 27786 ft 451 kts 153°
2026-04-24 00:57 -22.97929 132.99639 26614 ft 442 kts 153°
2026-04-24 00:58 -23.00539 133.01368 26030 ft 438 kts 152°
2026-04-24 00:58 -23.03159 133.03104 25438 ft 433 kts 152°
2026-04-24 00:58 -23.05711 133.04795 24870 ft 426 kts 152°
2026-04-24 00:58 -23.08195 133.06441 24317 ft 421 kts 151°
2026-04-24 00:59 -23.10684 133.08091 23757 ft 417 kts 151°
2026-04-24 00:59 -23.13138 133.09722 23201 ft 411 kts 150°
2026-04-24 00:59 -23.15570 133.11335 22664 ft 408 kts 150°
2026-04-24 00:59 -23.17984 133.12937 22132 ft 405 kts 150°
2026-04-24 01:00 -23.20382 133.14530 21590 ft 402 kts 150°
2026-04-24 01:00 -23.22757 133.16112 21060 ft 399 kts 150°
2026-04-24 01:00 -23.25112 133.17680 20535 ft 395 kts 150°
2026-04-24 01:00 -23.27446 133.19235 20013 ft 391 kts 149°
2026-04-24 01:01 -23.29761 133.20773 19499 ft 387 kts 149°
2026-04-24 01:01 -23.32044 133.22295 18989 ft 382 kts 149°
2026-04-24 01:01 -23.34299 133.23798 18473 ft 379 kts 148°
2026-04-24 01:01 -23.36539 133.25290 17969 ft 374 kts 148°
2026-04-24 01:02 -23.38755 133.26769 17480 ft 373 kts 148°
2026-04-24 01:02 -23.40960 133.28241 16992 ft 369 kts 148°
2026-04-24 01:02 -23.43109 133.29674 16497 ft 365 kts 148°
2026-04-24 01:02 -23.45297 133.31135 16026 ft 364 kts 148°
2026-04-24 01:03 -23.47416 133.32553 15544 ft 362 kts 148°
2026-04-24 01:03 -23.49559 133.33984 15067 ft 360 kts 148°
2026-04-24 01:03 -23.51661 133.35390 14592 ft 350 kts 147°
2026-04-24 01:03 -23.53708 133.36759 14130 ft 340 kts 147°
2026-04-24 01:04 -23.55479 133.38380 13663 ft 329 kts 126°
2026-04-24 01:04 -23.56556 133.40526 13295 ft 318 kts 114°
2026-04-24 01:04 -23.57433 133.42710 12840 ft 311 kts 114°
2026-04-24 01:04 -23.58313 133.44833 12448 ft 303 kts 115°
2026-04-24 01:05 -23.59183 133.46911 12036 ft 298 kts 115°
2026-04-24 01:05 -23.60040 133.48947 11655 ft 293 kts 115°
2026-04-24 01:05 -23.60887 133.50946 11269 ft 290 kts 115°
2026-04-24 01:05 -23.61737 133.52938 10909 ft 289 kts 115°
2026-04-24 01:06 -23.62583 133.54925 10504 ft 288 kts 116°
2026-04-24 01:06 -23.63427 133.56894 10127 ft 285 kts 116°
2026-04-24 01:06 -23.64267 133.58854 9708 ft 284 kts 116°
2026-04-24 01:06 -23.65100 133.60786 9379 ft 280 kts 116°
2026-04-24 01:07 -23.65933 133.62713 9014 ft 281 kts 116°
2026-04-24 01:07 -23.66766 133.64640 8635 ft 281 kts 116°
2026-04-24 01:07 -23.67703 133.66477 8279 ft 278 kts 121°
2026-04-24 01:07 -23.68700 133.68257 7940 ft 269 kts 121°
2026-04-24 01:08 -23.69640 133.69971 7430 ft 259 kts 120°
2026-04-24 01:08 -23.70563 133.71656 6908 ft 251 kts 120°
2026-04-24 01:08 -23.71398 133.73184 6648 ft 218 kts 120°
2026-04-24 01:08 -23.72114 133.74497 6466 ft 187 kts 120°
2026-04-24 01:09 -23.72749 133.75660 6147 ft 172 kts 120°
2026-04-24 01:09 -23.73407 133.76791 5101 ft 185 kts 119°
2026-04-24 01:09 -23.73981 133.77843 5252 ft 152 kts 116°
2026-04-24 01:09 -23.74498 133.78838 5369 ft 149 kts 119°
2026-04-24 01:10 -23.75020 133.79804 5503 ft 149 kts 118°
2026-04-24 01:10 -23.75536 133.80773 5497 ft 146 kts 116°
2026-04-24 01:10 -23.76053 133.81738 5570 ft 147 kts 117°
2026-04-24 01:10 -23.76581 133.82721 5308 ft 157 kts 117°
2026-04-24 01:11 -23.77148 133.83769 4570 ft 163 kts 115°
2026-04-24 01:11 -23.77733 133.84852 3706 ft 169 kts 116°
2026-04-24 01:11 -23.78305 133.85952 2990 ft 161 kts 116°
2026-04-24 01:11 -23.78837 133.86978 2503 ft 148 kts 117°
2026-04-24 01:12 -23.79330 133.87927 2123 ft 137 kts 119°
2026-04-24 01:12 -23.79801 133.88785 1903 ft 129 kts 118°
2026-04-24 01:12 -23.80243 133.89605 1782 ft 115 kts 118°
2026-04-24 01:12 -23.80534 133.90147 1782 ft 52 kts 121°
2026-04-24 01:13 -23.80593 133.90323 1781 ft 7 kts 45°
2026-04-24 01:13 -23.80563 133.90341 1781 ft 6 kts 30°
2026-04-24 01:13 -23.80521 133.90368 1780 ft 8 kts 29°
2026-04-24 01:13 -23.80465 133.90369 1781 ft 9 kts 323°
2026-04-24 01:14 -23.80431 133.90305 1781 ft 10 kts 300°
2026-04-24 01:14 -23.80391 133.90230 1781 ft 13 kts 301°
2026-04-24 01:14 -23.80345 133.90143 1781 ft 11 kts 300°
2026-04-24 01:14 -23.80313 133.90085 1782 ft 9 kts 301°
2026-04-24 01:15 -23.80283 133.90030 1782 ft 7 kts 300°
2026-04-24 01:15 -23.80255 133.89976 1782 ft 9 kts 300°
2026-04-24 01:15 -23.80224 133.89926 1781 ft 0 kts 332°
2026-04-24 01:15 -23.80219 133.89926 1782 ft 1 kts 346°
2026-04-24 01:16 -23.80216 133.89928 1782 ft 0 kts 13°
2026-04-24 01:16 -23.80212 133.89933 1782 ft 2 kts 44°
2026-04-24 01:16 -23.80214 133.89951 1782 ft 4 kts 101°
2026-04-24 01:16 -23.80232 133.89976 1782 ft 4 kts 153°
2026-04-24 01:17 -23.80263 133.89996 1782 ft 6 kts 135°
2026-04-24 01:17 -23.80289 133.90039 1782 ft 8 kts 122°
2026-04-24 01:17 -23.80318 133.90097 1782 ft 10 kts 120°
2026-04-24 01:17 -23.80322 133.90151 1781 ft 8 kts 66°
2026-04-24 01:18 -23.80306 133.90183 1781 ft 0 kts 60°